GSAT-7

Last updated on Mon Sep 07 2026 00:02:58 GMT+0000 (Coordinated Universal Time)

1 39234U 13044B 26249.60646839 -.00000093 00000+0 00000+0 0 9999 2 39234 0.2841 87.2838 0005123 164.9801 25.7762 1.00271088 46077
UTC large
Height (km)
Speed (km/s)
/
Latitude / Longitude
Inclination (degrees)
Orbital Period (minutes)
Azimuth
Elevation
Range (km)
Doppler Factor

Next 0 passes for location: London (51.5072 / 0.1276)

No passes found over London.
GSAT-7